Location: Newark
(44.2886°N, 4.8431°E)
Time: 14:37:41
(UTC+00:00)

ZACube-1 - Pass Details

Date: 29 November 2020
Orbit: 584 x 665 km, 97.6° (Epoch: 14 January)

Event Time Altitude Azimuth Distance (km) Brightness Sun altitude
Rises 17:31:09 0° 219° (SW) 2,867 ? -15.3°
Reaches altitude 10° 17:35:13 10° 258° (WSW) 1,949 ? -16.0°
Maximum altitude 17:36:10 11° 271° (W) 1,904 ? -16.1°
Drops below altitude 10° 17:37:08 10° 285° (WNW) 1,944 ? -16.3°
Sets 17:41:11 0° 324° (NW) 2,837 ? -17.0°
